Location: Adrasan
(36.3319°N, 30.4314°E)
Time: 11:57:46
(UTC+00:00)

Meteor 1-10 Rocket - Pass Details

Date: 28 May 2024
Orbit: 834 x 910 km, 81.3° (Epoch: 16 June)

Event Time Altitude Azimuth Distance (km) Brightness Sun altitude
Exits shadow 19:23:25 - 212° (SSW) 3,395 7.2 -21.8°
Reaches altitude 10° 19:25:56 10° 221° (SW) 2,511 6.5 -22.1°
Maximum altitude 19:31:01 33° 285° (WNW) 1,404 5.8 -22.7°
Drops below altitude 10° 19:36:04 10° 349° (NNW) 2,480 7.5 -23.3°
Sets 19:38:43 0° 358° (N) 3,410 8.2 -23.6°
